Terminal Aerodrome Forecast
Issued by NWS Melbourne, FL

Home | Current Version | Previous Version | Text Only | Print | Product List | Glossary On
Versions: 1 2 3 4 5 6 7 8 9 10 11 12 13 14 15 16 17 18 19 20 21 22 23 24 25
000
FTUS42 KMLB 010305 AAA
TAFMCO
TAF AMD
KMCO 010305Z 0103/0124 12004KT P6SM BKN300
     FM011400 14008KT P6SM FEW040 BKN250
     FM012000 11011KT P6SM FEW040 BKN250=

USA.gov is the U.S. government's official web portal to all federal, state and local government web resources and services.